Location: Piolenc
(44.1794°N, 4.7641°E)
Time: 04:50:07
(UTC+00:00)

NOSS 0 Rocket - Pass Details

Date: 27 January 2021
Orbit: 938 x 952 km, 70.0° (Epoch: 27 February)

Event Time Altitude Azimuth Distance (km) Brightness Sun altitude
Exits shadow 04:45:40 46° 318° (NW) 1,240 4.2 -24.8°
Drops below altitude 10° 04:51:06 10° 18° (NNE) 2,662 6.4 -23.8°
Sets 04:53:45 0° 24° (NNE) 3,608 7.2 -23.3°
